www.pogodaiklimat.ru

Погода и климат >> Архив погоды >> Пакистан >> Sibi


ПОГОДА в Sibi

  • Прогноз погоды в Sibi
  • Монитор погоды в Sibi
  • Климат города

АРХИВ ПОГОДЫ в Sibi

Время (UTC), дата Ветер
(напр.,м/с)
 
Видим.   Явления Облачность Т
(С)
Тd
(С)
f
(%)
Тe
(С)
Тes
(С)
Комфортность P
(гПа)
Po
(гПа)
Тmin
(С)
Tmax
(С)
R
(мм)
R24
(мм)
S
(см)
21 12.08 штиль 0 4000 м ясно +32.2 +30.0 88 +59 +59 опасность
перегрева
994.5 995.0
00 13.08 ЮЗ 3 4000 м ясно +31.2 +26.9 78 +49 +49 опасность
перегрева
994.8 980.1
03 13.08 штиль 0 10 км ясно +32.3 +27.8 77 +52 +58 опасность
перегрева
996.9 982.2 +26.5
06 13.08 ЮЗ 2 10 км ясно +36.1 +27.9 63 +56 +74 опасность
перегрева
997.4 997.0
09 13.08 ЮЗ 3 10 км ясно +40.0 +28.7 53 +61 +76 опасность
перегрева
995.3 995.0
12 13.08 ЮЗ 2 10 км ясно +42.2 +30.3 52 +68 +72 опасность
перегрева
992.9 978.8 +43.0
15 13.08 ЮЗ 3 4000 м 5/5 1200 м
[Sc]
+37.8 +30.8 68 +67 +67 опасность
перегрева
994.3 994.0
21 13.08 штиль 0 4000 м ясно +33.3 +27.4 71 +52 +52 опасность
перегрева
996.2 996.0
00 14.08 ЮВ 4 4000 м ясно +33.1 +27.6 73 +53 +53 опасность
перегрева
996.5 981.8
03 14.08 ЮЗ 2 10 км ясно +32.9 +27.6 74 +53 +57 опасность
перегрева
997.4 982.7 +26.5
06 14.08 ЮЗ 3 10 км 5/5 1200 м
[Sc]
+35.0 +28.3 68 +56 +64 опасность
перегрева
1002.1 1002.0
09 14.08 ЮЗ 2 4000 м 6/6 1200 м
[Sc]
+36.7 +29.2 66 +61 +68 опасность
перегрева
1001.8 1002.0
12 14.08 ЮЗ 3 4000 м 4/4 1200 м
[Sc]
+37.8 +30.1 65 +64 +67 опасность
перегрева
1000.1 1001.7 +39.0
15 14.08 ЮЗ 3 4000 м 5/5 1200 м
[Sc]
+35.0 +28.3 68 +56 +56 опасность
перегрева
1001.5 1002.0
18 14.08 СВ 8 4000 м 8/8 1200 м
[Sc]
+27.2 +23.4 80 +37 +37 очень
душно
1004.1 1004.0 0.9
21 14.08 СВ 6 4000 м 5/5 1200 м
[Sc]
+25.6 +22.6 84 +34 +34 очень
душно
1003.1 1003.0
00 15.08 СВ 3 4000 м ясно +27.8 +24.4 82 +39 +39 очень
душно
1002.7 987.8
03 15.08 СЗ 1 10 км ясно +29.4 +25.3 79 +43 +48 опасность
перегрева
1004.6 989.7 +22.0
06 15.08 ЮВ 2 10 км ясно +35.0 +25.3 57 +49 +67 опасность
перегрева
1004.7 1005.0
09 15.08 СЗ 2 10 км ясно +37.2 +27.6 58 +56 +74 опасность
перегрева
1001.6 1002.0
12 15.08 СЗ 1 10 км ясно +38.3 +30.0 63 +65 +69 опасность
перегрева
999.0 1000.3 +39.5
15 15.08 штиль 0 4000 м ясно +36.7 +27.0 58 +55 +55 опасность
перегрева
1000.3 1000.0
18 15.08 штиль 0 4000 м ясно +35.3 +26.6 61 +52 +52 опасность
перегрева
1000.8 1001.0
21 15.08 штиль 0 4000 м ясно +34.4 +27.0 65 +52 +52 опасность
перегрева
1000.2 1000.0
00 16.08 штиль 0 4000 м ясно +33.3 +26.6 68 +50 +50 опасность
перегрева
999.8 985.1
03 16.08 штиль 0 10 км ясно +34.4 +27.0 65 +52 +58 опасность
перегрева
1001.7 986.8 +26.0
06 16.08 штиль 0 10 км ясно +37.2 +28.3 61 +59 +83 опасность
перегрева
1001.7 1002.0
09 16.08 штиль 0 50 км ?/? +29.8 998.4 990.9
12 16.08 З 2 10 км ясно +43.3 +30.5 50 +69 +74 опасность
перегрева
995.3 981.0 +44.1
15 16.08 ЮЗ 2 4000 м ясно +39.4 +29.6 58 +64 +64 опасность
перегрева
996.1 1000.0
18 16.08 ЮВ 2 4000 м ясно +35.6 +27.4 63 +55 +55 опасность
перегрева
999.7 1000.0
21 16.08 ЮВ 2 4000 м ясно +33.9 +27.2 68 +52 +52 опасность
перегрева
997.3 997.0
00 17.08 штиль 0 4000 м ясно +31.7 +26.0 72 +47 +47 опасность
перегрева
997.5 982.8
03 17.08 штиль 0 10 км ясно +32.2 +26.5 72 +49 +55 опасность
перегрева
997.9 983.2 +26.1
06 17.08 штиль 0 50 км ?/? +37.0 +26.6 55 997.5 992.4
09 17.08 ЮЗ 2 10 км ясно +42.2 +27.2 43 +59 +76 опасность
перегрева
996.1 996.0
12 17.08 ЮЗ 3 10 км ясно +43.6 +29.0 45 +65 +68 опасность
перегрева
993.8 979.8 +44.0
15 17.08 ЮЗ 3 4000 м ясно +39.4 +29.6 58 +64 +64 опасность
перегрева
995.1 995.0
18 17.08 ЮЗ 2 4000 м ясно +35.0 +29.0 71 +58 +58 опасность
перегрева
997.9 1000.0
21 17.08 ЮЗ 1 4000 м ясно +32.5 +27.0 73 +51 +51 опасность
перегрева
996.9 1000.0
00 18.08 штиль 0 50 км ?/? +29.9 +26.1 80 1000.1 989.3
03 18.08 ЮЗ 2 10 км ясно +32.2 +26.5 72 +49 +53 опасность
перегрева
998.7 984.0 +25.0
06 18.08 ЮЗ 2 10 км ясно +36.7 +28.5 63 +59 +76 опасность
перегрева
999.6 1000.0
09 18.08 ЮЗ 2 10 км ясно +39.4 +30.4 61 +67 +84 опасность
перегрева
998.8 999.0
12 18.08 СЗ 1 10 км ясно +41.7 +30.4 54 +68 +73 опасность
перегрева
995.8 999.3 +42.5
15 18.08 ЮВ 2 4000 м ясно +38.9 +27.6 53 +58 +58 опасность
перегрева
997.2 1000.0
18 18.08 ЮВ 3 4000 м ясно +35.0 +26.8 63 +53 +53 опасность
перегрева
999.9 1000.0
21 18.08 ЮВ 2 4000 м ясно +32.8 +26.8 71 +50 +50 опасность
перегрева
998.8 999.0
00 19.08 ЮЗ 2 4000 м ясно +30.0 +25.1 75 +43 +43 опасность
перегрева
999.1 984.3
03 19.08 ЮВ 1 10 км ясно +31.1 +25.4 72 +45 +50 опасность
перегрева
1000.6 985.9 +24.0
06 19.08 ЮЗ 1 10 км ясно +35.6 +28.1 65 +56 +77 опасность
перегрева
1002.4 1002.0
09 19.08 ЮЗ 1 10 км ясно +41.1 +28.4 49 +61 +81 опасность
перегрева
999.7 1000.0
12 19.08 ЮЗ 3 10 км ясно +42.2 +29.5 50 +66 +69 опасность
перегрева
997.4 983.0 +42.5
15 19.08 ЮЗ 1 4000 м ясно +38.9 +29.8 60 +64 +64 опасность
перегрева
997.8 1000.0

 

Местоположение метеостанции Sibi (Пакистан): широта 29.55 долгота 67.88 высота над уровнем моря 134 м.

В архиве по умолчанию представлена погода в Sibi за последнюю неделю. Архивные данные за месяц целиком и за предыдущие месяцы, начиная с января 2011 года, Вы можете получить, выбрав интересующий диапазон дат из раскрывающегося списка и нажав кнопку "Ввод!".

Внимание! Время в таблицах - всемирное. Для получения местного времени необходимо прибавить поправку, которая в Sibi равна 5 ч.

Смотрите также архив погоды в соседних городах и на ближайших метеорологических станциях:

Погода в Quetta Airport (Пакистан) (124 км)
Погода в Kalat (Пакистан) (139 км)
Погода в Jacobabad (Пакистан) (150 км)
Погода в Barkhan (Пакистан) (181 км)
Погода в Khuzdar (Пакистан) (227 км)
Погода в Rohri (Пакистан) (232 км)
Погода в Zhob (Пакистан) (252 км)
Погода в Khanpur (Пакистан) (290 км)
Погода в Pad Idan (Пакистан) (301 км)
Погода в Dal Bandin (Пакистан) (346 км)

Пояснения к столбцам:

Ветер - указаны скорость ветра в м/с - средняя за 10 мин, порывы в срок и между сроками (в фигурных скобках) и направление, откуда дует ветер: С - северный, СВ - северо-восточный, В - восточный, ЮВ - юго-восточный, Ю - южный, ЮЗ - юго-западный, З - западный, СЗ - северо-западный.
Видимость - горизонтальная дальность видимости в метрах или километрах. При видимости от 1 до 10 км при отсутствии осадков обычно наблюдается дымка, при ухудшении видимости до 1 км и менее - туман. В сухую погоду видимость может ухудшаться дымом, пылью или мглою.
Явления - указаны атмосферные явления, наблюдавшиеся в срок или в последний час перед сроком; фигурными скобками обозначены явления, наблюдавшиеся между сроками (за 1-3 часа до срока); квадратными скобками обозначены град или гололедные отложения с указанием их диаметра в мм.
Облачность - указаны через наклонную черту общая и нижняя облачность в баллах и высота нижней границы облаков в метрах; квадратными скобками обозначены формы облаков: Ci - перистые, Cs - перисто-слоистые, Cc - перисто-кучевые, Ac - высококучевые, As - высокослоистые, Sc - слоисто-кучевые, Ns - слоисто-дождевые, Cu - кучевые, Cb - кучево-дождевые. Подробнее классификацию облаков см. в Атласе облаков (PDF).
T - Температура воздуха - температура, измеренная на высоте 2 м над землей.
Td - Температура точки росы - температура, при понижении до которой содержащийся в воздухе водяной пар достигнет насыщения.
f - Относительная влажность воздуха - влажноcть воздуха, измеренная на высоте 2 м над землей.
Te - Эффективная температура - температура, которую ощущает одетый по сезону человек в тени. Характеристика душности погоды. При расчете учитывается влияние влажности воздуха и скорости ветра на теплоощущения человека.
Tes - Эффективная температура на солнце - температура, которую ощущает человек, с поправкой на солнечный нагрев. Характеристика знойности погоды. Зависит от высоты солнца над горизонтом, облачности и скорости ветра. Ночью, в пасмурную погоду, а также при ветре 12 м/с и более поправка равна нулю.
P - Атмосферное давление - приведенное к уровню моря атмосферное давление.
Po - Атмосферное давление - измеренное на уровне метеостанции атмосферное давление.
Tmin - Минимальная температура - минимум температуры воздуха на высоте 2 м над землей.
Tmax - Максимальная температура - максимум температуры воздуха на высоте 2 м над землей.
R - Количество осадков - Количество выпавших осадков за период времени, мм. При наведении курсора мыши на число - период времени, за который выпало указанное количество осадков.
R24 - Количество осадков - Количество выпавших осадков за 24 часа, мм.
S - Снежный покров - Высота снежного покрова, см. При наведении курсора мыши на число - состояние снежного покрова и степень покрытия местности в баллах.